• In Latvia
  • List of Countries
  • For 7 days
  • Water Temperature
  • Satellite Maps
  • Weather Map
  • Weather Widgets
  • user-avatar
    Login

    Hourly Weather Tireli

    Today, 19 February, Monday

    Time Temperature Precipitation Wind Pressure Humidity
    00:00 -1°C° 0 mm 1 mps 767 mmHg 95%
    01:00 -2°C° 0 mm 1 mps 767 mmHg 95%
    02:00 -2°C° 0 mm 1 mps 767 mmHg 95%
    03:00 -2°C° 0 mm 1 mps 766 mmHg 95%
    04:00 -2°C° 0 mm 1 mps 766 mmHg 95%
    05:00 -2°C° 0 mm 1 mps 766 mmHg 96%
    06:00 -2°C° 0 mm 1 mps 766 mmHg 96%
    07:00 -2°C° 0 mm 1 mps 766 mmHg 96%
    08:00 -2°C° 0 mm 1 mps 767 mmHg 96%
    09:00 -1°C° 0 mm 1 mps 767 mmHg 93%
    10:00 -1°C° 0 mm 1 mps 767 mmHg 91%
    11:00 0°C° 0 mm 1 mps 767 mmHg 89%
    12:00 0°C° 0 mm 1 mps 767 mmHg 88%
    13:00 +1°C° 0 mm 1 mps 767 mmHg 87%
    14:00 +1°C° 0 mm 1 mps 767 mmHg 86%
    15:00 0°C° 0 mm 1 mps 767 mmHg 87%
    16:00 -2°C° 0 mm 2 mps 767 mmHg 89%
    17:00 -3°C° 0 mm 2 mps 767 mmHg 90%
    18:00 -3°C° 0 mm 2 mps 768 mmHg 90%
    19:00 -4°C° 0 mm 2 mps 768 mmHg 91%
    20:00 -5°C° 0 mm 2 mps 768 mmHg 91%
    21:00 -5°C° 0 mm 2 mps 768 mmHg 91%
    22:00 -6°C° 0 mm 2 mps 768 mmHg 91%
    23:00 -6°C° 0 mm 2 mps 768 mmHg 91%

    Tomorrow, 20 February, Tuesday

    Time Temperature Precipitation Wind Pressure Humidity
    00:00 -7°C° 0 mm 2 mps 769 mmHg 92%
    01:00 -7°C° 0 mm 2 mps 769 mmHg 92%
    02:00 -6°C° 0 mm 1 mps 769 mmHg 92%
    03:00 -6°C° 0 mm 1 mps 769 mmHg 92%
    04:00 -7°C° 0 mm 1 mps 769 mmHg 92%
    05:00 -8°C° 0 mm 2 mps 769 mmHg 92%
    06:00 -8°C° 0 mm 2 mps 769 mmHg 92%
    07:00 -8°C° 0 mm 2 mps 769 mmHg 91%
    08:00 -8°C° 0 mm 2 mps 769 mmHg 91%
    09:00 -7°C° 0 mm 2 mps 769 mmHg 88%
    10:00 -4°C° 0 mm 1 mps 769 mmHg 85%
    11:00 -4°C° 0 mm 1 mps 769 mmHg 82%
    12:00 -3°C° 0 mm 1 mps 769 mmHg 80%
    13:00 -3°C° 0 mm 1 mps 769 mmHg 79%
    14:00 -3°C° 0 mm 1 mps 769 mmHg 77%
    15:00 -3°C° 0 mm 1 mps 769 mmHg 79%
    16:00 -5°C° 0 mm 2 mps 769 mmHg 81%
    17:00 -5°C° 0 mm 2 mps 769 mmHg 83%
    18:00 -6°C° 0 mm 2 mps 769 mmHg 85%
    19:00 -6°C° 0 mm 2 mps 769 mmHg 87%
    20:00 -6°C° 0 mm 2 mps 769 mmHg 89%
    21:00 -7°C° 0 mm 2 mps 770 mmHg 90%
    22:00 -6°C° 0 mm 1 mps 770 mmHg 90%
    23:00 -6°C° 0 mm 1 mps 770 mmHg 91%

    Day after tomorrow, 21 February, Wednesday

    Time Temperature Precipitation Wind Pressure Humidity
    00:00 -7°C° 0 mm 1 mps 770 mmHg 91%
    01:00 -7°C° 0 mm 1 mps 770 mmHg 92%
    02:00 -7°C° 0 mm 1 mps 770 mmHg 92%
    03:00 -7°C° 0 mm 1 mps 770 mmHg 93%
    04:00 -8°C° 0 mm 1 mps 770 mmHg 93%
    05:00 -8°C° 0 mm 1 mps 770 mmHg 94%
    06:00 -8°C° 0 mm 1 mps 769 mmHg 94%
    07:00 -9°C° 0 mm 1 mps 769 mmHg 94%
    08:00 -9°C° 0 mm 1 mps 769 mmHg 94%
    09:00 -8°C° 0 mm 1 mps 770 mmHg 90%
    10:00 -7°C° 0 mm 1 mps 770 mmHg 87%
    11:00 -6°C° 0 mm 1 mps 770 mmHg 83%
    12:00 -4°C° 0 mm 1 mps 770 mmHg 80%
    13:00 -4°C° 0 mm 1 mps 770 mmHg 77%
    14:00 -3°C° 0 mm 1 mps 770 mmHg 74%
    15:00 -4°C° 0 mm 1 mps 770 mmHg 76%
    16:00 -4°C° 0 mm 1 mps 770 mmHg 79%
    17:00 -6°C° 0 mm 1 mps 769 mmHg 82%
    18:00 -6°C° 0 mm 1 mps 770 mmHg 84%
    19:00 -8°C° 0 mm 2 mps 770 mmHg 86%
    20:00 -9°C° 0 mm 2 mps 770 mmHg 88%
    21:00 -9°C° 0 mm 2 mps 770 mmHg 89%
    22:00 -10°C° 0 mm 2 mps 771 mmHg 89%
    23:00 -10°C° 0 mm 2 mps 771 mmHg 90%

    22 February, Thursday

    Time Temperature Precipitation Wind Pressure Humidity
    00:00 -10°C° 0 mm 2 mps 771 mmHg 91%
    01:00 -12°C° 0 mm 2 mps 771 mmHg 91%
    02:00 -12°C° 0 mm 2 mps 772 mmHg 92%
    03:00 -12°C° 0 mm 2 mps 772 mmHg 92%
    04:00 -13°C° 0 mm 2 mps 772 mmHg 93%
    05:00 -13°C° 0 mm 2 mps 772 mmHg 93%
    06:00 -13°C° 0 mm 2 mps 772 mmHg 93%
    07:00 -13°C° 0 mm 2 mps 772 mmHg 93%
    08:00 -14°C° 0 mm 2 mps 772 mmHg 93%
    09:00 -13°C° 0 mm 2 mps 772 mmHg 89%
    10:00 -12°C° 0 mm 2 mps 772 mmHg 85%
    11:00 -10°C° 0 mm 2 mps 772 mmHg 81%
    12:00 -9°C° 0 mm 2 mps 772 mmHg 79%
    13:00 -9°C° 0 mm 2 mps 772 mmHg 77%
    14:00 -8°C° 0 mm 2 mps 772 mmHg 75%
    15:00 -8°C° 0 mm 2 mps 772 mmHg 77%
    16:00 -9°C° 0 mm 2 mps 771 mmHg 79%
    17:00 -9°C° 0 mm 2 mps 771 mmHg 82%
    18:00 -9°C° 0 mm 2 mps 771 mmHg 84%
    19:00 -10°C° 0 mm 2 mps 771 mmHg 86%
    20:00 -12°C° 0 mm 2 mps 771 mmHg 88%
    21:00 -12°C° 0 mm 2 mps 770 mmHg 89%
    22:00 -10°C° 0 mm 1 mps 770 mmHg 90%
    23:00 -10°C° 0 mm 1 mps 770 mmHg 90%

    23 February, Friday

    Time Temperature Precipitation Wind Pressure Humidity
    00:00 -10°C° 0 mm 1 mps 770 mmHg 91%
    01:00 -11°C° 0 mm 1 mps 769 mmHg 92%
    02:00 -11°C° 0 mm 1 mps 769 mmHg 93%
    03:00 -11°C° 0 mm 1 mps 769 mmHg 93%
    04:00 -11°C° 0 mm 1 mps 768 mmHg 93%
    05:00 -12°C° 0 mm 1 mps 768 mmHg 94%
    06:00 -12°C° 0 mm 1 mps 768 mmHg 94%
    07:00 -12°C° 0 mm 1 mps 768 mmHg 94%
    08:00 -12°C° 0 mm 1 mps 768 mmHg 94%
    09:00 -11°C° 0 mm 1 mps 767 mmHg 90%
    10:00 -12°C° 0 mm 2 mps 767 mmHg 86%
    11:00 -10°C° 0 mm 2 mps 767 mmHg 82%
    12:00 -9°C° 0 mm 2 mps 767 mmHg 79%
    13:00 -9°C° 0 mm 2 mps 767 mmHg 77%
    14:00 -10°C° 0 mm 3 mps 766 mmHg 75%
    15:00 -10°C° 0 mm 3 mps 766 mmHg 77%
    16:00 -10°C° 0 mm 3 mps 766 mmHg 78%
    17:00 -12°C° 0 mm 4 mps 766 mmHg 79%
    18:00 -12°C° 0 mm 4 mps 766 mmHg 81%
    19:00 -14°C° 0 mm 4 mps 766 mmHg 84%
    20:00 -14°C° 0 mm 4 mps 766 mmHg 86%
    21:00 -14°C° 0 mm 3 mps 766 mmHg 87%
    22:00 -14°C° 0 mm 3 mps 766 mmHg 88%
    23:00 -15°C° 0 mm 3 mps 766 mmHg 89%

    24 February, Saturday

    Time Temperature Precipitation Wind Pressure Humidity
    00:00 -15°C° 0 mm 3 mps 765 mmHg 89%
    01:00 -16°C° 0 mm 4 mps 765 mmHg 89%
    02:00 -16°C° 0 mm 4 mps 765 mmHg 89%
    03:00 -16°C° 0 mm 4 mps 764 mmHg 89%
    04:00 -16°C° 0 mm 4 mps 764 mmHg 88%
    05:00 -17°C° 0 mm 5 mps 764 mmHg 88%
    06:00 -17°C° 0 mm 5 mps 763 mmHg 88%
    07:00 -17°C° 0 mm 5 mps 763 mmHg 88%
    08:00 -17°C° 0 mm 5 mps 763 mmHg 87%
    09:00 -17°C° 0.1 mm 5 mps 763 mmHg 86%
    10:00 -15°C° 0.1 mm 5 mps 762 mmHg 85%
    11:00 -14°C° 0.1 mm 5 mps 762 mmHg 84%
    12:00 -14°C° 0.1 mm 5 mps 762 mmHg 83%
    13:00 -14°C° 0.1 mm 6 mps 761 mmHg 82%
    14:00 -14°C° 0.1 mm 6 mps 761 mmHg 81%
    15:00 -14°C° 0.1 mm 6 mps 760 mmHg 82%
    16:00 -14°C° 0.1 mm 6 mps 760 mmHg 83%
    17:00 -14°C° 0.1 mm 6 mps 759 mmHg 84%
    18:00 -14°C° 0.2 mm 6 mps 759 mmHg 85%
    19:00 -12°C° 0.2 mm 6 mps 759 mmHg 87%
    20:00 -12°C° 0.2 mm 6 mps 759 mmHg 88%
    21:00 -12°C° 0.3 mm 6 mps 758 mmHg 89%
    22:00 -12°C° 0.3 mm 6 mps 758 mmHg 89%
    23:00 -12°C° 0.3 mm 6 mps 758 mmHg 90%
    Show more